Location: De Har
(53.3413°N, 6.6858°E)
Time: 16:25:26
(UTC+00:00)

Cosmos 2369 - Pass Details

Date: 22 April 2026
Orbit: 838 x 855 km, 71.0° (Epoch: 9 May)

Event Time Altitude Azimuth Distance (km) Brightness Sun altitude
Rises 00:27:05 0° 327° (NNW) 3,420 7.5 -23.5°
Reaches altitude 10° 00:29:33 10° 326° (NW) 2,483 6.6 -23.4°
Maximum altitude 00:35:14 74° 242° (WSW) 889 3.6 -23.1°
Enters shadow 00:36:37 52° 175° (S) 1,055 3.8 -23.1°
